This demonstration page uses our WeatherBlox Daily Observations layout. Learn more.

Left ArrowRight Arrow

36.19886, -115.1175

Hourly Observations for November 28, 2022

Temp ( °F °C ) Dew Point ( °F °C ) Humidity (%) Winds ( mph kmh ) Pressure ( in mb ) Visibility ( mi km ) Precip ( " mm )
12:53 am 00:53 Clear 44 6.7 26 -3.3 49 49 Calm 29.97 1015 10 16 0.00 0.00
1:53 am 01:53 Clear 47 8.3 25 -3.9 42 42 Calm 29.95 1014 10 16 0.00 0.00
2:53 am 02:53 Clear 44 6.7 24 -4.4 45 45 Calm 29.93 1014 10 16 0.00 0.00
3:53 am 03:53 Clear 44 6.7 25 -3.9 47 47 W 3 6 29.91 1013 10 16 0.00 0.00
4:53 am 04:53 Clear 43 6.1 25 -3.9 49 49 WNW 3 6 29.91 1013 10 16 0.00 0.00
5:53 am 05:53 Clear 42 5.6 25 -3.9 50 50 NW 5 7 29.91 1013 10 16 0.00 0.00
6:53 am 06:53 Sunny 42 5.6 26 -3.3 53 53 NW 3 6 29.90 1013 10 16 0.00 0.00
7:53 am 07:53 Sunny 45 7.2 27 -2.8 49 49 NW 3 6 29.90 1012 10 16 0.00 0.00
8:53 am 08:53 Sunny 48 8.9 26 -3.3 42 42 Calm 29.88 1012 10 16 0.00 0.00
9:53 am 09:53 Sunny 50 10 25 -3.9 37 37 N 5 7 29.88 1012 10 16 0.00 0.00
10:53 am 10:53 Sunny 54 12.2 25 -3.9 32 32 NE 7 11 29.84 1011 10 16 0.00 0.00
11:53 am 11:53 Sunny 55 12.8 24 -4.4 30 30 Calm 29.79 1009 10 16 0.00 0.00
12:53 pm 12:53 Sunny 59 15 24 -4.4 26 26 E 6 9 29.75 1008 10 16 0.00 0.00
1:53 pm 13:53 Sunny 59 15 24 -4.4 26 26 Calm 29.72 1007 8 13 0.00 0.00
2:53 pm 14:53 Sunny 59 15 23 -5 25 25 Calm 29.71 1006 10 16 0.00 0.00
3:53 pm 15:53 Sunny 59 15 23 -5 25 25 Calm 29.69 1005 10 16 0.00 0.00
4:53 pm 16:53 Clear 56 13.3 25 -3.9 30 30 NNW 5 7 29.68 1005 10 16 0.00 0.00
5:53 pm 17:53 Clear 55 12.8 25 -3.9 31 31 NNW 3 6 29.69 1005 10 16 0.00 0.00
6:53 pm 18:53 Clear 51 10.6 25 -3.9 36 36 NNW 7 11 29.70 1006 10 16 0.00 0.00
7:53 pm 19:53 Clear 50 10 24 -4.4 36 36 WNW 5 7 29.71 1006 10 16 0.00 0.00
8:53 pm 20:53 Clear 48 8.9 24 -4.4 39 39 WSW 5 7 29.72 1006 10 16 0.00 0.00
9:53 pm 21:53 Clear 46 7.8 24 -4.4 42 42 N 5 7 29.73 1007 10 16 0.00 0.00
10:53 pm 22:53 Clear 45 7.2 22 -5.6 40 40 NW 7 11 29.75 1008 10 16 0.00 0.00
11:53 pm 23:53 Clear 47 8.3 22 -5.6 37 37 NNW 9 15 29.76 1008 10 16 0.00 0.00

Powered by AerisWeather